When you browse on this site, cookies collect data to enhance your experience and personalize the content and advertising you see.
Visit our Privacy Policy to learn more. By continuing to use the site, you agree to this use of cookies and data.
  • în România
  • Lista ţărilor
  • Pe 7 zile
  • Temperatura apei
  • Hartă satelitară
  • Meteo pe hartă
  • Widget-uri
  • user-avatar
    Intrare

    Meteo pe oră la Tervayarvi

    Astăzi, 24 Iulie, Miercuri

    Timp Temperatura Precipitaţii Vânt Presiune Umiditate
    00:00 +16°C° 0.2 mm 3 m/s 756 mmHg 68%
    01:00 +14°C° 0.2 mm 3 m/s 756 mmHg 80%
    02:00 +13°C° 0.2 mm 3 m/s 756 mmHg 92%
    03:00 +13°C° 0.2 mm 3 m/s 756 mmHg 93%
    04:00 +14°C° 0.2 mm 2 m/s 756 mmHg 94%
    05:00 +14°C° 0.2 mm 2 m/s 756 mmHg 95%
    06:00 +15°C° 0 mm 2 m/s 756 mmHg 90%
    07:00 +16°C° 0 mm 1 m/s 756 mmHg 85%
    08:00 +18°C° 0 mm 1 m/s 756 mmHg 81%
    09:00 +18°C° 0 mm 1 m/s 756 mmHg 77%
    10:00 +18°C° 0 mm 1 m/s 756 mmHg 73%
    11:00 +19°C° 0 mm 1 m/s 756 mmHg 69%
    12:00 +19°C° 0 mm 2 m/s 756 mmHg 63%
    13:00 +20°C° 0 mm 2 m/s 756 mmHg 58%
    14:00 +23°C° 0 mm 2 m/s 756 mmHg 52%
    15:00 +21°C° 0 mm 2 m/s 757 mmHg 56%
    16:00 +20°C° 0 mm 2 m/s 757 mmHg 60%
    17:00 +19°C° 0 mm 2 m/s 757 mmHg 64%
    18:00 +19°C° 0 mm 1 m/s 757 mmHg 70%
    19:00 +18°C° 0 mm 1 m/s 757 mmHg 76%
    20:00 +15°C° 0 mm 0 m/s 757 mmHg 81%
    21:00 +14°C° 0 mm 0 m/s 757 mmHg 83%
    22:00 +14°C° 0 mm 0 m/s 757 mmHg 84%
    23:00 +13°C° 0 mm 0 m/s 758 mmHg 86%

    Mâine, 25 Iulie, Joi

    Timp Temperatura Precipitaţii Vânt Presiune Umiditate
    00:00 +14°C° 0 mm 1 m/s 758 mmHg 89%
    01:00 +13°C° 0 mm 1 m/s 758 mmHg 91%
    02:00 +13°C° 0 mm 2 m/s 758 mmHg 94%
    03:00 +13°C° 0 mm 2 m/s 758 mmHg 93%
    04:00 +13°C° 0 mm 2 m/s 758 mmHg 91%
    05:00 +14°C° 0 mm 2 m/s 759 mmHg 90%
    06:00 +15°C° 0 mm 2 m/s 759 mmHg 81%
    07:00 +17°C° 0 mm 2 m/s 759 mmHg 72%
    08:00 +19°C° 0 mm 2 m/s 759 mmHg 62%
    09:00 +20°C° 0 mm 2 m/s 759 mmHg 60%
    10:00 +23°C° 0 mm 2 m/s 759 mmHg 57%
    11:00 +24°C° 0 mm 3 m/s 759 mmHg 54%
    12:00 +25°C° 0 mm 2 m/s 759 mmHg 53%
    13:00 +26°C° 0 mm 2 m/s 759 mmHg 52%
    14:00 +27°C° 0 mm 2 m/s 759 mmHg 50%
    15:00 +27°C° 0 mm 2 m/s 759 mmHg 51%
    16:00 +27°C° 0 mm 2 m/s 759 mmHg 51%
    17:00 +27°C° 0 mm 2 m/s 759 mmHg 52%
    18:00 +25°C° 0 mm 2 m/s 759 mmHg 61%
    19:00 +24°C° 0 mm 2 m/s 759 mmHg 69%
    20:00 +21°C° 0 mm 2 m/s 759 mmHg 78%
    21:00 +20°C° 0 mm 2 m/s 760 mmHg 81%
    22:00 +19°C° 0 mm 2 m/s 760 mmHg 85%
    23:00 +18°C° 0 mm 2 m/s 760 mmHg 88%

    Poimâine, 26 Iulie, Vineri

    Timp Temperatura Precipitaţii Vânt Presiune Umiditate
    00:00 +18°C° 0 mm 2 m/s 761 mmHg 90%
    01:00 +17°C° 0 mm 2 m/s 761 mmHg 93%
    02:00 +17°C° 0 mm 2 m/s 761 mmHg 95%
    03:00 +17°C° 0 mm 2 m/s 761 mmHg 94%
    04:00 +18°C° 0 mm 2 m/s 761 mmHg 93%
    05:00 +18°C° 0 mm 2 m/s 762 mmHg 92%
    06:00 +20°C° 0 mm 2 m/s 762 mmHg 84%
    07:00 +21°C° 0 mm 2 m/s 762 mmHg 76%
    08:00 +24°C° 0 mm 2 m/s 762 mmHg 69%
    09:00 +25°C° 0 mm 2 m/s 762 mmHg 63%
    10:00 +27°C° 0 mm 2 m/s 762 mmHg 57%
    11:00 +28°C° 0 mm 1 m/s 762 mmHg 52%
    12:00 +29°C° 0 mm 1 m/s 762 mmHg 49%
    13:00 +29°C° 0 mm 1 m/s 762 mmHg 46%
    14:00 +30°C° 0 mm 1 m/s 761 mmHg 43%
    15:00 +30°C° 0 mm 1 m/s 761 mmHg 44%
    16:00 +29°C° 0 mm 1 m/s 761 mmHg 45%
    17:00 +29°C° 0 mm 1 m/s 761 mmHg 45%
    18:00 +27°C° 0 mm 1 m/s 761 mmHg 53%
    19:00 +25°C° 0 mm 1 m/s 761 mmHg 61%
    20:00 +24°C° 0 mm 1 m/s 761 mmHg 68%
    21:00 +23°C° 0 mm 1 m/s 761 mmHg 69%
    22:00 +22°C° 0 mm 1 m/s 761 mmHg 71%
    23:00 +20°C° 0 mm 2 m/s 761 mmHg 72%

    27 Iulie, Sâmbătă

    Timp Temperatura Precipitaţii Vânt Presiune Umiditate
    00:00 +20°C° 0 mm 2 m/s 761 mmHg 73%
    01:00 +20°C° 0 mm 2 m/s 761 mmHg 74%
    02:00 +19°C° 0 mm 2 m/s 760 mmHg 75%
    03:00 +19°C° 0 mm 2 m/s 760 mmHg 76%
    04:00 +20°C° 0 mm 2 m/s 760 mmHg 76%
    05:00 +20°C° 0 mm 2 m/s 760 mmHg 77%
    06:00 +23°C° 0 mm 2 m/s 760 mmHg 70%
    07:00 +24°C° 0 mm 2 m/s 760 mmHg 63%
    08:00 +26°C° 0 mm 2 m/s 759 mmHg 56%
    09:00 +28°C° 0 mm 2 m/s 759 mmHg 52%
    10:00 +29°C° 0 mm 2 m/s 759 mmHg 47%
    11:00 +30°C° 0 mm 3 m/s 759 mmHg 43%
    12:00 +30°C° 0 mm 3 m/s 759 mmHg 42%
    13:00 +31°C° 0 mm 3 m/s 759 mmHg 42%
    14:00 +31°C° 0 mm 3 m/s 758 mmHg 41%
    15:00 +29°C° 0.2 mm 3 m/s 758 mmHg 52%
    16:00 +27°C° 0.2 mm 4 m/s 758 mmHg 63%
    17:00 +25°C° 0.2 mm 5 m/s 758 mmHg 74%
    18:00 +23°C° 0 mm 5 m/s 759 mmHg 73%
    19:00 +21°C° 0 mm 5 m/s 759 mmHg 72%
    20:00 +20°C° 0 mm 6 m/s 759 mmHg 71%
    21:00 +17°C° 0 mm 6 m/s 760 mmHg 69%
    22:00 +16°C° 0 mm 6 m/s 760 mmHg 66%
    23:00 +14°C° 0 mm 6 m/s 761 mmHg 64%

    28 Iulie, Duminică

    Timp Temperatura Precipitaţii Vânt Presiune Umiditate
    00:00 +13°C° 0 mm 6 m/s 761 mmHg 65%
    01:00 +10°C° 0 mm 6 m/s 762 mmHg 66%
    02:00 +9°C° 0 mm 6 m/s 762 mmHg 67%
    03:00 +8°C° 0 mm 6 m/s 762 mmHg 68%
    04:00 +8°C° 0 mm 6 m/s 762 mmHg 70%
    05:00 +7°C° 0 mm 6 m/s 762 mmHg 71%
    06:00 +8°C° 0 mm 5 m/s 762 mmHg 67%
    07:00 +9°C° 0 mm 5 m/s 762 mmHg 62%
    08:00 +10°C° 0 mm 5 m/s 762 mmHg 58%
    09:00 +12°C° 0 mm 4 m/s 762 mmHg 54%
    10:00 +14°C° 0 mm 4 m/s 762 mmHg 51%
    11:00 +15°C° 0 mm 4 m/s 762 mmHg 47%
    12:00 +15°C° 0 mm 4 m/s 762 mmHg 45%
    13:00 +17°C° 0 mm 4 m/s 761 mmHg 43%
    14:00 +18°C° 0 mm 3 m/s 761 mmHg 42%
    15:00 +18°C° 0 mm 3 m/s 761 mmHg 41%
    16:00 +18°C° 0 mm 3 m/s 760 mmHg 41%
    17:00 +18°C° 0 mm 2 m/s 760 mmHg 41%
    18:00 +16°C° 0 mm 2 m/s 760 mmHg 49%
    19:00 +15°C° 0 mm 1 m/s 760 mmHg 56%
    20:00 +13°C° 0 mm 1 m/s 760 mmHg 63%
    21:00 +12°C° 0 mm 2 m/s 760 mmHg 67%
    22:00 +10°C° 0 mm 3 m/s 760 mmHg 70%
    23:00 +8°C° 0 mm 4 m/s 760 mmHg 74%

    29 Iulie, Luni

    Timp Temperatura Precipitaţii Vânt Presiune Umiditate
    00:00 +8°C° 0 mm 3 m/s 760 mmHg 76%
    01:00 +7°C° 0 mm 3 m/s 760 mmHg 79%
    02:00 +7°C° 0 mm 2 m/s 760 mmHg 82%
    03:00 +7°C° 0 mm 2 m/s 760 mmHg 80%
    04:00 +7°C° 0 mm 2 m/s 759 mmHg 77%
    05:00 +7°C° 0 mm 2 m/s 759 mmHg 75%
    06:00 +10°C° 0 mm 1 m/s 759 mmHg 67%
    07:00 +12°C° 0 mm 1 m/s 759 mmHg 60%
    08:00 +14°C° 0 mm 1 m/s 758 mmHg 52%
    09:00 +15°C° 0 mm 2 m/s 758 mmHg 49%
    10:00 +16°C° 0 mm 3 m/s 758 mmHg 46%
    11:00 +17°C° 0 mm 3 m/s 757 mmHg 43%
    12:00 +17°C° 0 mm 4 m/s 757 mmHg 42%
    13:00 +16°C° 0 mm 5 m/s 757 mmHg 41%
    14:00 +16°C° 0 mm 6 m/s 757 mmHg 39%
    15:00 +15°C° 0 mm 6 m/s 757 mmHg 42%
    16:00 +14°C° 0 mm 6 m/s 757 mmHg 45%
    17:00 +13°C° 0 mm 6 m/s 757 mmHg 47%
    18:00 +11°C° 0 mm 6 m/s 757 mmHg 51%
    19:00 +10°C° 0 mm 6 m/s 758 mmHg 54%
    20:00 +9°C° 0 mm 6 m/s 758 mmHg 58%
    21:00 +7°C° 0 mm 5 m/s 758 mmHg 61%
    22:00 +6°C° 0 mm 5 m/s 758 mmHg 65%
    23:00 +5°C° 0 mm 5 m/s 759 mmHg 68%
    Arată mai mult